Theta_e
303 298 294 297 297 297 296 292 291 294 299 297 296 297 298 300 300 299 302 304 305 305 308 305 309 312 321 325 326 327 327 328 326 325 323 324 322 323 323 324 324 324 325 324
297 293 296 299 298 297 295 293 292 294 299 297 295 295 298 299 300 302 303 304 305 306 307 309 309 307 315 322 325 326 327 327 327 327 326 326 325 325 324 324 323 323 324 324
292 293 300 298 295 294 293 293 293 293 296 296 294 292 295 298 299 301 303 305 306 306 307 309 310 309 308 318 323 325 326 327 328 328 327 326 325 325 323 323 322 322 322 323
293 297 296 296 294 295 290 295 295 293 292 287 294 283 290 293 296 298 300 301 302 304 306 308 309 308 308 311 321 325 326 326 328 328 326 324 323 321 323 323 323 323 322 322
289 292 292 291 293 295 291 295 294 292 289 287 290 286 288 291 292 295 298 298 300 301 303 305 307 309 311 309 314 323 325 326 327 327 327 326 324 325 325 324 323 323 323 322
292 295 295 294 295 296 296 291 290 288 288 283 287 286 286 289 292 293 296 298 299 301 303 303 305 308 309 307 312 319 323 324 326 326 327 326 325 324 324 323 322 323 322 322
289 290 292 295 290 292 293 288 279 276 280 278 285 284 288 293 295 295 296 298 300 300 302 302 302 304 305 304 305 315 319 322 324 325 326 326 326 325 324 324 323 322 322 321
283 281 290 293 291 288 289 288 281 272 274 277 283 281 286 294 298 297 298 298 299 300 301 302 302 302 302 303 304 305 315 319 323 324 325 326 327 326 326 326 325 324 323 323
281 281 290 292 292 292 287 286 290 280 277 277 280 284 291 294 295 295 295 294 295 297 299 299 300 301 302 303 305 305 310 317 321 323 324 325 326 326 326 327 327 326 325 324
284 279 286 290 292 292 290 291 281 279 272 272 279 279 281 286 288 291 290 291 295 297 298 298 298 297 301 303 305 307 308 313 318 321 323 324 325 326 327 327 326 326 326 325
286 282 281 287 286 286 286 286 286 284 280 272 272 278 288 290 290 289 289 294 295 296 297 297 298 297 298 299 300 301 304 305 308 314 320 322 324 325 326 326 327 326 326 326
288 283 278 281 286 289 290 288 287 281 276 280 280 280 291 290 289 291 293 296 298 297 297 298 299 298 299 299 300 301 301 302 304 307 310 317 321 323 324 325 326 327 326 326
289 282 270 276 281 284 284 287 288 287 283 280 277 280 289 288 289 292 293 295 297 297 295 293 294 294 294 294 295 296 298 300 302 303 305 307 313 318 321 323 325 326 326 326
294 283 280 276 279 282 282 284 286 286 279 280 281 283 287 288 289 291 293 295 293 291 291 291 291 292 292 292 292 293 294 297 296 298 301 302 305 309 314 319 322 324 325 325
289 278 282 282 282 282 282 283 284 283 285 280 282 283 288 287 289 291 289 289 288 287 288 287 288 288 289 289 289 291 292 293 292 293 296 300 302 304 308 312 316 320 322 324
288 277 282 277 283 283 282 283 283 283 284 284 284 284 290 286 285 284 284 284 284 284 285 285 285 286 287 286 287 288 290 289 290 291 293 296 299 300 302 307 311 313 316 319
286 282 274 272 280 280 276 281 282 283 285 285 281 286 284 282 284 282 281 281 280 282 282 282 282 284 284 283 285 285 287 287 288 289 290 293 293 293 295 298 302 304 309 313
282 283 279 273 274 271 280 282 284 284 285 285 283 280 279 279 281 281 280 278 278 279 279 280 280 281 282 282 283 284 284 284 286 286 287 287 286 287 289 292 293 297 302 305
287 284 278 274 267 274 278 280 279 280 279 278 279 277 277 277 280 279 279 278 277 278 278 278 280 279 280 280 280 281 280 282 283 283 283 284 284 284 285 287 290 293 296 298
287 288 280 271 273 268 276 281 284 282 274 276 276 274 273 276 277 280 276 276 276 276 276 277 277 277 277 278 279 277 278 279 280 281 280 282 283 283 283 286 288 290 293 294
281 279 279 269 265 269 278 280 283 270 274 275 274 273 272 272 274 274 275 274 275 275 275 275 275 274 275 276 275 275 275 275 278 278 280 280 281 282 284 285 287 288 290 292
279 277 276 271 271 272 274 280 278 275 274 273 271 271 270 271 271 271 271 271 272 271 272 272 272 272 273 273 272 271 271 275 274 275 276 277 278 281 284 285 286 286 288 289
277 278 274 277 275 273 272 272 272 273 273 271 270 270 269 268 268 269 269 270 270 270 270 271 270 270 271 271 270 269 271 271 272 273 272 273 277 280 284 285 285 285 287 288
279 280 277 276 272 270 270 270 271 271 270 270 269 268 268 266 268 269 269 269 268 268 268 268 268 267 267 268 269 268 269 269 269 268 270 272 275 278 284 285 286 286 286 286
275 278 272 270 270 269 269 269 269 269 269 268 268 268 267 267 267 267 266 266 266 267 267 267 266 265 265 267 266 266 267 268 267 268 269 271 274 276 280 284 285 286 287 287
266 272 275 274 272 271 269 268 268 267 266 266 266 265 266 266 265 265 265 265 265 265 265 264 264 264 264 265 264 265 265 266 266 266 268 270 273 276 280 282 284 288 289 289
Wind_Speed
4 6 13 13 9 5 1 4 7 3 5 1 6 15 7 7 10 10 13 12 12 14 11 10 13 11 14 14 15 19 16 19 13 14 12 12 13 10 9 10 13 13 13 14
4 16 7 5 6 7 7 10 15 3 4 2 5 19 15 8 15 18 17 16 16 14 12 15 14 12 11 16 17 17 19 19 17 13 14 13 12 11 10 8 11 13 14 14
13 4 12 9 5 11 8 15 9 8 2 4 3 16 17 10 10 12 12 14 15 16 20 19 16 15 12 15 17 18 19 19 18 19 10 9 7 8 8 10 11 13 15 15
10 6 9 6 10 8 10 7 8 6 4 5 5 9 11 10 15 16 17 13 14 16 17 16 15 14 15 17 17 19 19 19 18 18 14 18 14 14 13 12 11 12 15 16
10 12 10 9 9 9 10 7 8 6 6 3 10 6 7 2 14 17 15 11 15 12 13 14 15 16 18 15 15 16 19 18 19 18 20 16 17 14 10 10 13 15 14 17
10 3 8 12 7 9 4 4 1 0 3 10 19 8 12 10 14 8 6 9 11 11 15 12 12 14 15 11 12 12 16 18 18 18 21 21 21 18 13 13 12 12 12 11
7 7 2 4 5 4 5 4 5 3 7 9 2 7 14 11 13 14 15 16 17 11 15 14 13 12 13 9 10 10 13 17 17 19 20 22 21 20 20 18 14 13 12 11
12 8 15 6 8 7 10 12 8 7 5 6 2 7 8 14 18 8 13 9 11 15 13 13 11 9 9 8 8 7 8 12 14 17 20 19 21 14 15 17 14 12 13 14
8 8 4 5 5 10 6 9 13 4 2 2 4 7 11 17 20 16 8 5 8 13 12 12 11 9 8 7 6 5 7 8 9 14 15 16 16 19 17 18 17 15 15 13
6 1 7 9 6 9 11 7 2 3 4 6 5 5 9 8 3 6 8 9 10 9 10 11 11 10 9 8 7 5 4 8 9 9 11 13 16 17 18 16 18 17 16 15
4 5 1 7 11 15 5 9 5 5 6 5 3 8 11 17 5 4 5 7 8 9 9 10 9 8 8 8 9 9 7 7 8 6 8 9 12 15 15 17 18 17 17 17
9 4 5 8 1 7 16 17 14 9 7 4 5 14 8 3 2 3 7 6 8 6 8 12 14 12 14 15 16 15 15 15 14 8 7 7 8 12 14 16 18 18 18 18
14 6 3 8 5 1 7 10 10 12 4 17 7 16 7 4 7 7 7 6 8 11 15 15 16 15 16 16 16 17 17 17 17 18 15 10 9 11 13 16 17 17 18 18
17 5 11 13 7 5 6 7 13 14 7 12 15 22 25 10 8 7 9 13 12 11 12 14 16 17 14 16 16 15 17 17 18 19 17 15 15 14 13 14 15 16 16 17
10 7 5 3 4 3 4 6 10 15 19 9 5 16 17 2 4 7 8 11 12 13 13 13 14 15 16 17 17 17 16 16 18 18 18 17 16 16 15 14 13 14 15 15
5 3 4 3 4 4 6 7 7 5 4 7 7 28 6 7 7 8 10 11 12 13 14 16 16 17 16 18 20 19 17 19 18 17 18 19 18 17 17 16 15 12 13 13
11 7 4 5 1 3 10 8 10 7 7 9 14 16 4 5 7 5 8 10 12 12 15 16 17 16 17 18 18 19 19 19 18 17 18 17 18 18 17 17 16 12 13 13
8 8 2 3 3 7 4 2 5 13 12 6 4 7 7 3 6 9 7 9 11 13 14 14 16 17 18 18 17 18 17 17 16 17 16 17 19 19 19 18 15 15 12 13
7 7 4 6 5 4 5 5 7 8 8 2 2 7 5 10 4 5 7 12 11 13 13 13 14 16 18 18 20 18 19 17 17 17 19 18 20 21 20 20 18 15 13 13
5 8 7 3 6 10 7 6 4 3 6 4 5 5 4 7 2 1 14 16 13 14 14 15 17 16 16 15 16 18 18 18 17 18 21 18 18 20 21 19 19 16 14 15
7 3 15 3 4 8 7 1 3 6 3 7 4 4 2 0 2 10 14 13 13 14 14 16 15 15 15 17 17 18 17 18 19 20 20 19 18 19 20 20 16 16 16 14
9 8 5 3 2 13 4 0 7 4 5 6 3 2 3 5 9 11 13 15 15 16 17 18 15 15 16 16 17 18 18 18 20 20 20 20 19 16 15 20 17 16 15 15
5 8 8 9 6 4 5 8 6 4 5 3 1 3 5 8 8 10 10 12 14 16 16 15 15 17 15 16 17 19 20 21 21 20 20 20 20 17 16 17 18 15 13 12
2 3 4 6 4 7 10 8 8 7 5 2 2 4 4 6 9 10 10 12 13 13 15 15 16 16 16 16 17 17 19 20 20 21 20 18 18 18 16 13 13 12 12 13
3 5 7 5 6 8 4 6 6 5 3 1 3 4 6 7 9 10 11 11 11 12 12 13 13 14 15 16 18 17 18 18 19 19 18 17 14 16 16 13 12 11 11 12
1 5 5 4 11 4 6 9 5 5 2 3 5 6 6 7 9 10 10 10 10 11 11 11 12 13 14 15 16 18 19 18 18 18 15 14 14 14 13 13 14 16 20 23
Wind_Direction
205 201 213 211 223 224 204 213 240 174 210 201 259 284 284 293 293 277 273 278 272 264 256 250 255 242 229 221 216 212 203 207 203 192 201 207 213 210 210 207 205 203 206 202
174 228 193 181 222 217 235 254 257 250 242 238 286 282 285 275 279 273 273 272 268 272 273 263 255 249 222 218 215 216 213 208 204 210 196 213 211 213 215 211 211 204 203 204
212 224 170 181 188 215 226 231 250 252 241 254 251 277 278 275 248 269 264 256 265 265 270 267 259 242 233 221 215 214 216 213 210 208 207 209 212 217 207 212 213 210 204 204
227 204 172 185 228 184 232 192 228 229 224 251 151 284 279 281 269 262 271 259 259 264 263 261 264 258 242 232 222 215 213 211 211 203 203 196 211 212 216 215 219 218 211 209
213 171 181 192 218 172 243 161 203 200 216 262 233 244 283 292 283 269 266 248 253 259 267 267 262 256 252 243 228 215 213 212 211 204 205 207 211 225 219 217 217 215 216 214
233 187 176 212 196 182 127 132 64 218 199 241 247 213 264 256 251 285 275 266 269 272 283 277 273 274 266 236 228 219 212 213 210 208 208 208 213 214 214 215 216 218 216 214
189 217 248 168 153 159 173 136 266 271 227 246 164 181 236 268 268 258 281 287 288 297 279 274 282 288 270 244 227 221 217 217 208 208 209 214 217 216 218 215 215 212 214 215
204 216 196 192 190 177 198 191 209 206 229 250 126 218 252 238 262 268 274 316 309 301 298 290 289 275 286 285 272 260 238 229 214 211 215 217 221 220 222 222 222 221 219 218
177 240 194 198 156 153 193 199 220 293 163 265 227 285 292 279 278 284 316 338 335 340 341 339 336 337 334 325 295 238 252 246 237 226 226 227 224 226 226 226 226 227 222 224
202 223 203 194 146 231 193 149 158 257 204 239 231 256 246 277 260 354 14 356 330 341 349 347 356 353 343 339 322 311 285 261 239 236 229 230 231 228 231 233 231 232 230 223
197 155 203 117 208 191 174 211 204 156 153 192 244 246 221 260 206 334 324 318 312 324 338 331 329 324 318 328 342 322 317 296 281 250 246 239 239 242 236 233 234 232 230 224
184 149 195 207 270 198 212 221 211 216 223 239 257 263 234 194 324 48 326 314 279 294 320 331 337 345 0 3 358 348 337 328 322 308 289 260 252 247 245 242 238 234 232 227
176 200 65 335 334 210 200 214 199 215 84 236 229 260 102 296 335 317 313 315 326 359 20 14 5 5 6 2 357 354 347 341 338 333 323 301 273 260 254 252 247 239 234 232
166 159 198 216 211 161 200 186 203 197 205 244 229 270 265 288 299 314 316 323 41 34 23 7 3 353 353 352 347 344 343 349 343 337 326 315 301 281 265 259 256 249 240 235
163 199 176 184 170 186 200 187 186 203 224 202 228 245 268 25 320 315 30 28 27 16 10 5 353 349 346 345 342 340 338 344 339 332 327 319 316 305 288 272 259 255 247 238
176 179 118 246 254 205 242 218 212 207 222 252 254 259 26 67 83 48 45 23 16 5 356 351 346 343 342 344 336 334 334 339 334 330 325 322 324 320 308 290 274 261 255 248
163 123 108 238 170 74 280 213 198 198 196 200 231 266 49 44 61 65 51 33 8 353 347 342 340 336 335 334 331 329 333 326 327 327 323 328 333 327 321 311 297 279 268 259
142 140 137 153 72 222 241 258 213 211 231 223 355 56 55 345 303 133 75 30 2 348 340 336 330 330 330 327 329 325 329 325 325 322 324 329 327 324 318 312 303 292 276 266
135 140 145 167 201 309 284 235 170 171 225 65 117 66 30 320 318 185 65 22 352 340 330 326 322 325 322 322 327 329 325 323 322 323 324 324 325 319 316 309 304 298 286 275
120 175 172 139 199 213 225 170 33 97 251 100 83 78 33 323 159 208 351 348 333 328 326 325 326 323 318 326 327 320 320 322 318 323 318 316 316 313 307 303 302 297 283 275
162 123 209 168 207 284 261 344 310 124 231 126 103 88 54 315 271 318 319 318 320 319 329 324 325 320 327 331 326 321 321 315 321 316 313 315 312 308 305 301 299 297 289 278
160 160 182 114 171 252 15 218 191 116 101 114 96 50 314 305 305 313 319 320 327 335 333 336 331 329 331 332 328 322 316 321 316 316 315 312 307 305 303 303 306 301 293 285
188 179 176 181 202 54 27 92 88 60 104 90 51 2 338 318 321 321 326 331 337 335 335 334 330 328 332 333 332 322 323 323 319 317 313 307 304 303 302 304 309 305 301 288
218 170 142 134 144 129 112 94 91 81 91 77 353 326 342 328 325 339 336 338 337 336 334 333 330 332 332 332 329 323 321 322 319 315 310 308 305 305 303 305 305 301 302 298
203 116 130 82 98 104 119 119 130 122 104 56 5 352 352 345 346 345 334 335 337 334 336 333 330 329 331 333 328 327 327 324 321 315 311 309 305 307 302 300 299 290 278 273
247 167 167 197 152 116 121 137 127 126 98 36 4 356 3 2 348 342 327 333 331 331 332 334 328 327 330 335 330 327 329 329 324 318 315 313 311 310 311 308 306 294 283 276